Regional Weather Roundup
Issued by NWS

Home | Current Version | Previous Version | Graphics & Text | Print | Product List | Glossary On
Versions: 1 2 3 4 5 6 7 8 9 10 11 12 13 14 15 16 17 18 19 20 21 22 23 24 25 26 27 28 29 30 31 32 33 34 35 36 37 38 39 40 41 42 43 44 45 46 47 48 49 50
000
ASUS45 KSLC 270610
RWRUT

UTAH REGIONAL WEATHER ROUNDUP
NATIONAL WEATHER SERVICE SALT LAKE CITY UT
1200 AM MDT MON JUL 27 2015

UTZ001>011-023>025-270700-

NORTHERN UTAH

CITY           SKY/WX    TMP DP  RH WIND       PRES   REMARKS
BRIGHAM CITY   CLEAR     73  32  22 CALM      29.75S
HILL AFB       CLEAR     80  25  13 S15       29.80F
LOGAN            N/A    N/A N/A N/A MISG      29.77F
OGDEN          CLEAR     76  30  18 S12       29.77S
PROVO AIRPORT  CLEAR     75  36  23 SE10      29.86S
SALT LAKE CITY CLEAR     84  26  12 S21       29.77F
VERNAL         PTCLDY    71  49  45 W7        29.97F
WENDOVER       CLEAR     82  37  20 NW18G29   29.76S
HEBER CITY     CLEAR     64  34  32 CALM      29.95S
WEST JORDAN    CLEAR     79  30  17 SE17      29.83F

$$

UTZ012>022-026-027-270700-

SOUTHERN/CENTRAL UTAH

CITY           SKY/WX    TMP DP  RH WIND       PRES   REMARKS
BLANDING       MOCLDY    70  44  38 NE8       30.13F
BRYCE CANYON   CLEAR     50  32  50 W6        30.20S
CEDAR CITY     CLEAR     60  32  34 NW6       30.02F
DELTA          CLEAR     75  20  12 S12       29.90S
HANKSVILLE     CLEAR     81  36  19 SE5       29.91F
MILFORD        CLEAR     67  30  25 S12       29.94F
MOAB/CYNLANDS  CLEAR     75  46  35 SE8       29.91F
PRICE          PTCLDY    75  36  24 E8        30.01F
ST GEORGE      CLEAR     86  32  14 SW15      29.84R
KANAB          CLEAR     63  41  45 E3        30.06R

$$

REGIONAL REPORTS     COLORADO/ARIZONA

CITY           SKY/WX    TMP DP  RH WIND       PRES   REMARKS
CRAIG, CO      CLEAR     69  42  37 E6        30.08R
GRAND JUNCTION CLEAR     75  46  35 SE14      29.98S
RIFLE          PTCLDY    69  43  38 CALM      30.05S
MONTROSE       MOCLDY    70  52  52 SE10      30.10F
CORTEZ         CLEAR     60  49  66 CALM      30.10R
PAGE, AZ       NOT AVBL
GRAND CANYON   CLEAR     52  30  43 CALM      30.18S
KINGMAN        CLEAR     84  30  14 S16       29.93R
FLAGSTAFF      CLEAR     60  33  36 SW8       30.22F

$$

REGIONAL REPORTS    NEVADA/IDAHO/WYOMING

CITY           SKY/WX    TMP DP  RH WIND       PRES   REMARKS
LAS VEGAS, NV  CLEAR     92  29  10 S9        29.73R
ELY            CLEAR     72  14  11 SE22      29.98F
ELKO           PTCLDY    66  31  27 SW10      29.90F
POCATELLO, ID  CLEAR     70  44  39 SW14      29.83S
BURLEY         MOCLDY    66  46  48 W15G22    29.83S
EVANSTON, WY   CLEAR     64  29  26 SE8       30.04F
ROCK SPRINGS   MOCLDY    71  38  29 S6        30.05F
KEMMERER       CLEAR     63  27  25 N6        30.07F

$$



USA.gov is the U.S. government's official web portal to all federal, state and local government web resources and services.